This is the latest recevied weather packets stored in our database for station/object KG5TTF. If no packets are shown the sender has not sent any weather packets the latest 10 day(s).
| Time | Temp. | Humidity | Pressure | Rain* | Wind** | Luminosity | Snow |
|---|---|---|---|---|---|---|---|
| 1777963029 | 6.11° C | 94% | 1016.4 hPa | 0 mm | - | 0 W/m² | - |
| 1777962725 | 6.11° C | 94% | 1016.4 hPa | 0 mm | - | 0 W/m² | - |
| 1777962421 | 6.11° C | 94% | 1016.3 hPa | 0 mm | - | 0 W/m² | - |
| 1777962119 | 6.11° C | 94% | 1016 hPa | 0 mm | - | 0 W/m² | - |
| 1777961816 | 6.11° C | 94% | 1016.1 hPa | 0 mm | - | 0 W/m² | - |
| 1777961514 | 6.11° C | 94% | 1016.3 hPa | 0 mm | - | 0 W/m² | - |
| 1777961211 | 6.11° C | 94% | 1016.3 hPa | 0 mm | - | 0 W/m² | - |
| 1777960908 | 6.11° C | 95% | 1016.3 hPa | 0 mm | - | 0 W/m² | - |
| 1777960603 | 6.11° C | 95% | 1016.5 hPa | 0 mm | - | 0 W/m² | - |
| 1777960300 | 6.11° C | 95% | 1016.5 hPa | 1.78 mm | - | 0 W/m² | - |
| 1777959997 | 6.67° C | 95% | 1016.5 hPa | 1.78 mm | - | 0 W/m² | - |
| 1777959695 | 6.67° C | 95% | 1016.4 hPa | 0 mm | - | 0 W/m² | - |
| 1777959393 | 6.67° C | 95% | 1016.8 hPa | 1.27 mm | - | 0 W/m² | - |
| 1777959089 | 6.67° C | 94% | 1016.8 hPa | 3.05 mm | - | 0 W/m² | - |
| 1777958786 | 6.67° C | 94% | 1016.6 hPa | 3.05 mm | - | 0 W/m² | - |
| 1777958483 | 6.67° C | 94% | 1016.6 hPa | 1.27 mm | - | 0 W/m² | - |
| 1777958180 | 7.22° C | 93% | 1016.8 hPa | 0 mm | - | 0 W/m² | - |
| 1777957878 | 7.22° C | 93% | 1016.9 hPa | 1.78 mm | - | 0 W/m² | - |
| 1777957576 | 7.22° C | 93% | 1016.6 hPa | 1.78 mm | - | 0 W/m² | - |
| 1777957274 | 7.22° C | 92% | 1016.8 hPa | 0 mm | - | 0 W/m² | - |
| 1777956969 | 7.22° C | 92% | 1016.9 hPa | 0 mm | - | 0 W/m² | - |
| 1777956667 | 7.22° C | 91% | 1016.6 hPa | 1.27 mm | - | 0 W/m² | - |
| 1777956364 | 7.22° C | 90% | 1016.8 hPa | 1.27 mm | - | 0 W/m² | - |
| 1777956060 | 7.22° C | 90% | 1016.8 hPa | 1.78 mm | - | 0 W/m² | - |
| 1777955756 | 7.22° C | 89% | 1016.9 hPa | 3.05 mm | - | 0 W/m² | - |
* Rain latest hour (hover to see other rain measurements)
** Current wind speed in m/s (hover to see current wind gust speed)